User: anonymous   Login
Location: Unspecified
(0.0000°N, 0.0000°E)
Time: 11:12:45
(UTC+00:00)
Language:

METEOR M2-2 - Orbit

View from above orbital plane
View from above orbital plane
View from above satellite
View from above satellite

Ground track
Ground track

The orbit data is extracted from the following two-line orbital elements,

1 44387U 19038A   22333.09489101 -.00000001  00000-0  18972-4 0  9995
2 44387  98.7466 292.7288 0001856 125.0797 235.0555 14.23732009176838
Epoch (UTC): 29 November 2022 02:16:38
Eccentricity: 0.0001856
inclination: 98.7466°
perigee height: 811 km
apogee height: 814 km
right ascension of ascending node: 292.7288°
argument of perigee: 125.0797°
revolutions per day: 14.23732009
mean anomaly at epoch: 235.0555°
orbit number at epoch: 17683

The dashed part of the orbit path shows where the satellite is in the earth's shadow,  

DLR